Forestdale, MA

1:01 AM EDT on September 30, 2016 (GMT -0400)
Cape Cod Coast Guard Air Station

Weather History for KFMH - February, 2009

Change the Weather History Date:

Saturday, February 7, 2009

  Actual Average Record
Temperature  
Mean Temperature 24 °F -  
Max Temperature 46 °F 36 °F 50 °F (2005)
Min Temperature 1 °F 21 °F 1 °F (2009)
Degree Days  
Heating Degree Days 42    
Moisture  
Dew Point 22 °F    
Average Humidity 77    
Maximum Humidity 100    
Minimum Humidity 57    
Precipitation  
Precipitation 0.00 in - - ()
Snow  
Snow 0.00 in - - ()
Snow Depth 2.00 in    
Sea Level Pressure  
Sea Level Pressure 30.25 in    
Wind  
Wind Speed 7 mph (SSW)    
Max Wind Speed 22 mph    
Max Gust Speed 30 mph    
Visibility 13 miles    
Events      
Averages and records for this station are not official NWS values.
T = Trace of Precipitation, MM = Missing Value Source: NWS Daily Summary

Daily Weather History Graph

Daily Weather History Graph

Search for Another Location

Airport or City:

Trip Planner

Search our weather history database for the weather conditions in past years. The results will help you decide how hot, cold, wet, or windy it might be!

Date:

Astronomy

Feb. 07, 2009 Rise Set
Actual Time 6:47 AM EST 5:05 PM EST
Civil Twilight 6:18 AM EST 5:34 PM EST
Nautical Twilight 5:45 AM EST 6:07 PM EST
Astronomical Twilight 5:13 AM EST 6:39 PM EST
Moon 2:51 PM EST (2/7) 5:25 AM EST (2/7)
Length of Visible Light 11h 16m
Length of Day
10h 18m
Waxing Gibbous, 95% of the Moon is Illuminated
Feb 7
Waxing Gibbous
Feb 9
Full
Feb 16
Last Quarter
Feb 24
New
Mar 4
First Quarter

Hourly Weather History & Observations

Time (EST) Temp. Windchill Dew Point Humidity Pressure Visibility Wind Dir Wind Speed Gust Speed Precip Events Conditions
12:55 AM 12.2 °F - 8.6 °F 85% 30.40 in 15.0 mi Calm Calm - N/A   Scattered Clouds
1:55 AM 8.6 °F - 6.8 °F 92% 30.41 in 15.0 mi Calm Calm - N/A   Scattered Clouds
2:55 AM 5.0 °F - 3.2 °F 92% 30.41 in 10.0 mi Variable 1.2 mph - N/A   Scattered Clouds
3:55 AM 3.2 °F - 3.2 °F 100% 30.41 in 10.0 mi NNE 1.2 mph - N/A   Partly Cloudy
4:55 AM 3.2 °F - 1.4 °F 92% 30.41 in 10.0 mi Variable 1.2 mph - N/A   Partly Cloudy
5:55 AM 1.4 °F - -0.4 °F 92% 30.42 in 10.0 mi North 2.3 mph - N/A   Partly Cloudy
6:55 AM 1.4 °F - -0.4 °F 92% 30.41 in 10.0 mi NNE 2.3 mph - N/A   Partly Cloudy
7:55 AM 8.6 °F - 6.8 °F 92% 30.39 in 10.0 mi NNE 2.3 mph - N/A   Partly Cloudy
8:55 AM 17.6 °F 12.3 °F 14.0 °F 86% 30.39 in 15.0 mi South 3.5 mph - N/A   Scattered Clouds
9:55 AM 32.0 °F 24.8 °F 23.0 °F 69% 30.38 in 15.0 mi South 8.1 mph - N/A   Mostly Cloudy
10:55 AM 37.4 °F 28.5 °F 24.8 °F 60% 30.35 in 15.0 mi SSW 15.0 mph - N/A   Mostly Cloudy
11:55 AM 39.2 °F 29.6 °F 26.6 °F 61% 30.31 in 15.0 mi SSW 19.6 mph 24.2 mph N/A   Overcast
12:55 PM 41.0 °F 32.2 °F 26.6 °F 57% 30.28 in 15.0 mi SSW 18.4 mph 25.3 mph N/A   Overcast
1:55 PM 41.0 °F 33.1 °F 30.2 °F 65% 30.25 in 15.0 mi SSW 15.0 mph 23.0 mph N/A   Mostly Cloudy
2:55 PM 41.0 °F 31.9 °F 30.2 °F 65% 30.21 in 15.0 mi South 19.6 mph 27.6 mph N/A   Mostly Cloudy
3:55 PM 41.0 °F 33.1 °F 30.2 °F 65% 30.19 in 15.0 mi South 15.0 mph - N/A   Mostly Cloudy
4:55 PM 41.0 °F 34.7 °F 30.2 °F 65% 30.16 in 15.0 mi South 10.4 mph - N/A   Mostly Cloudy
5:55 PM 41.0 °F 34.3 °F 33.8 °F 76% 30.16 in 15.0 mi South 11.5 mph - N/A   Mostly Cloudy
6:55 PM 44.6 °F 37.2 °F 35.6 °F 71% 30.10 in 15.0 mi SSW 17.3 mph 27.6 mph N/A   Mostly Cloudy
7:55 PM 46.4 °F 38.5 °F 35.6 °F 66% 30.05 in 15.0 mi SSW 21.9 mph - N/A   Mostly Cloudy
8:55 PM 46.4 °F 38.7 °F 39.2 °F 76% 30.04 in 15.0 mi SSW 20.7 mph 29.9 mph N/A   Overcast
9:55 PM 46.4 °F 39.0 °F 39.2 °F 76% 30.00 in 15.0 mi SSW 19.6 mph - N/A   Overcast
10:55 PM 46.4 °F 38.7 °F 41.0 °F 81% 29.97 in 10.0 mi SSW 20.7 mph 29.9 mph N/A   Overcast
11:55 PM 46.4 °F 39.0 °F 41.0 °F 81% 29.94 in 9.0 mi SW 19.6 mph 27.6 mph N/A   Overcast